{"data":{"norad_id":62132,"epoch":"2026-05-25T04:34:48.563040Z","epoch_age_seconds":62575,"freshness":"FRESH","line1":"1 62132U 24222U   26145.19083985  .00021326  00000+0  78183-3 0  9990","line2":"2 62132  42.9996  63.7298 0001112 278.8130  81.2596 15.27598243 84306","mean_motion":15.27598243,"eccentricity":0.0001112,"inclination_deg":42.9996,"raan_deg":63.7298,"arg_perigee_deg":278.813,"mean_anomaly_deg":81.2596,"bstar":0.00078183,"rev_number":8430,"period_min":94.265622954111,"perigee_km":482.23151265889,"apogee_km":483.75742829792,"semimajor_km":6861.1314704784,"source":"CELESTRAK","updated_at":"2026-05-25T13:38:19.566613Z"}}